Flight Information

DEPARTURE
ASPEN, CO
Elevation:
7837
Runways:
15/33 - 8006x100 - ASPH-G
ATIS:
120.4
Clearance Delivery:
123.75
Ground:
121.9
Tower:
ASPEN TOWER 118.85
DESTINATION
,
Elevation:
TPA:
1000 (est.)


6179.2 NM79° True-12° Var66° HDG

Flight Plan:
(click to file on line)

1. Type
2. Aircraft Identification
3. Aircraft Type / Special Equipment
4. True Airspeed
kts
5. Departure Airport
(ICAO code)
6. Arriving Airport
(ICAO code)
7. Cruising Altitude
ft
8. Alternate Airport
(ICAO code)
9. Route of Flight
10. Remarks


00:00:00 Departure ATIS: Destination ATIS:

Clearance Limit:
Route:
Altitude: Expect in minutes
Frequency:
Transponder: (7500 Hijack / 7600 Lost Comms / 7700 Emergency)


KASE 052353Z 02005KT 7SM BKN070 OVC090 02/M03 A2984 RMK AO2 SLP065 T00221028 10056 20022 55003 $
Time: 2022-12-05T23:53:00Z
1670650446
Winds: 20 @ 5 kts
Visibility: 7.0 sm
Clouds (AGL): BKN 7000
OVC 9000
Temperature: 2.2 C
Dew Point: -2.8 C
Pressure: 29.840551 in Hgbr


Notes:

Data extracted from FAA Digital Chart Supplement. Effective: 0901Z Thursday, 27 JAN 2022 to 0900z Thursday, 24 MAR 2022
Current ATIS data is provided courtisy of PilotEdge.